{"data":{"norad_id":64601,"epoch":"2026-05-24T23:00:24.698016Z","epoch_age_seconds":74495,"freshness":"FRESH","line1":"1 64601U 25137H   26144.95861919  .00033881  00000+0  11508-2 0  9999","line2":"2 64601  53.1598 340.8599 0001087  85.2645 274.8480 15.30202486 52410","mean_motion":15.30202486,"eccentricity":0.0001087,"inclination_deg":53.1598,"raan_deg":340.8599,"arg_perigee_deg":85.2645,"mean_anomaly_deg":274.848,"bstar":0.0011508,"rev_number":5241,"period_min":94.105192820867,"perigee_km":474.46268811838,"apogee_km":475.95260524457,"semimajor_km":6853.3446466815,"source":"CELESTRAK","updated_at":"2026-05-25T13:38:20.493588Z"}}